User: anonymous   Login
Location: Sweet Grass
(48.9965°N, 111.9649°W)
Time: 09:27:48
(UTC+00:00)
Language:

OBJECT AZ - Orbit

View from above orbital plane
View from above orbital plane
View from above satellite
View from above satellite

Ground track
Ground track

The orbit data is extracted from the following two-line orbital elements,

1 43805U 18099AZ  23341.59608100  .00007643  00000-0  53179-3 0  9997
2 43805  97.5401  40.8703 0011041 229.9430 130.0830 15.05707905273811
Epoch (UTC): 07 December 2023 14:18:21
Eccentricity: 0.0011041
inclination: 97.5401°
perigee height: 541 km
apogee height: 557 km
right ascension of ascending node: 40.8703°
argument of perigee: 229.9430°
revolutions per day: 15.05707905
mean anomaly at epoch: 130.0830°
orbit number at epoch: 27381

The dashed part of the orbit path shows where the satellite is in the earth's shadow,  

DLR